TimeCDT,TemperatureF,Dew PointF,Humidity,Sea Level PressureIn,VisibilityMPH,Wind Direction,Wind SpeedMPH,Gust SpeedMPH,PrecipitationIn,Events,Conditions,WindDirDegrees,DateUTC
12:54 AM,33.1,12.9,43,29.88,10.0,NNW,4.6,-,N/A,,Overcast,330,2012-11-01 05:54:00
1:54 AM,34.0,12.9,42,29.87,10.0,NW,4.6,-,N/A,,Mostly Cloudy,320,2012-11-01 06:54:00
2:54 AM,34.0,15.1,46,29.86,10.0,NW,5.8,-,N/A,,Overcast,310,2012-11-01 07:54:00
3:54 AM,34.0,16.0,48,29.85,10.0,NW,4.6,-,N/A,,Overcast,310,2012-11-01 08:54:00
4:54 AM,33.1,17.1,52,29.85,10.0,WNW,6.9,-,N/A,,Clear,300,2012-11-01 09:54:00
5:54 AM,34.0,18.0,52,29.86,10.0,NW,6.9,-,N/A,,Mostly Cloudy,310,2012-11-01 10:54:00
6:50 AM,33.8,17.6,52,29.81,10.0,NNW,3.5,-,N/A,,Mostly Cloudy,330,2012-11-01 11:50:00
6:54 AM,34.0,18.0,52,29.86,10.0,NW,4.6,-,N/A,,Mostly Cloudy,310,2012-11-01 11:54:00
7:51 AM,35.6,17.6,48,29.82,10.0,NW,4.6,-,N/A,,Overcast,320,2012-11-01 12:51:00
8:54 AM,36.0,18.0,48,29.88,10.0,NW,5.8,-,N/A,,Overcast,310,2012-11-01 13:54:00
9:54 AM,39.0,23.0,53,29.89,10.0,NNW,9.2,-,N/A,,Overcast,330,2012-11-01 14:54:00
10:06 AM,39.2,24.8,56,29.84,10.0,NNW,12.7,-,N/A,,Overcast,330,2012-11-01 15:06:00
11:11 AM,39.2,28.4,65,29.85,10.0,NNW,8.1,16.1,N/A,,Overcast,330,2012-11-01 16:11:00
11:54 AM,42.1,30.0,62,29.90,10.0,NW,10.4,-,N/A,,Overcast,320,2012-11-01 16:54:00
12:54 PM,41.0,30.0,65,29.89,10.0,NW,12.7,19.6,N/A,,Overcast,320,2012-11-01 17:54:00
2:38 PM,42.8,30.2,61,29.84,10.0,NNW,11.5,-,N/A,,Overcast,330,2012-11-01 19:38:00
2:54 PM,43.0,30.0,60,29.88,10.0,NW,11.5,-,N/A,,Overcast,320,2012-11-01 19:54:00
4:54 PM,41.0,30.0,65,29.90,10.0,NNW,8.1,-,0.00,,Overcast,330,2012-11-01 21:54:00
6:54 PM,37.9,30.0,73,29.94,10.0,NNW,8.1,-,N/A,,Overcast,340,2012-11-01 23:54:00
7:54 PM,39.0,28.9,67,29.96,10.0,NNW,8.1,-,N/A,,Overcast,340,2012-11-02 00:54:00
8:54 PM,37.9,28.0,68,29.96,10.0,NNW,10.4,18.4,N/A,,Overcast,340,2012-11-02 01:54:00
9:54 PM,37.0,28.0,70,29.97,10.0,North,8.1,-,N/A,,Mostly Cloudy,350,2012-11-02 02:54:00
10:54 PM,35.1,28.0,76,29.98,10.0,NNW,5.8,-,N/A,,Clear,340,2012-11-02 03:54:00
11:54 PM,34.0,28.0,79,29.99,10.0,NNW,6.9,-,N/A,,Clear,340,2012-11-02 04:54:00